| time (UTC) | temp C | wind direction | speed KPH | gust KPH | rain 1hr cm | rain 24hr cm | rain mn cm | humidity % | barometer mb |
| 20260509032652 | 22 | 189 | 6.4 | 9.7 | 0.00 | 0.00 | 0.00 | 53 | 1002.2 |
| 20260509032409 | 22 | 210 | 8.0 | 9.7 | 0.00 | 0.00 | 0.00 | 51 | 1002.4 |
| 20260509031644 | 22 | 175 | 6.4 | 9.7 | 0.00 | 0.00 | 0.00 | 52 | 1002.1 |
| 20260509031623 | 22 | 162 | 8.0 | 9.7 | 0.00 | 0.00 | 0.00 | 50 | 1002.3 |
| 20260509030614 | 22 | 179 | 4.8 | 9.7 | 0.00 | 0.00 | 0.00 | 52 | 1002.3 |
| 20260509030111 | 22 | 173 | 6.4 | 9.7 | 0.00 | 0.00 | 0.00 | 52 | 1002.1 |
| 20260509025606 | 21 | 162 | 6.4 | 9.7 | 0.00 | 0.00 | 0.00 | 51 | 1002.2 |
| 20260509025101 | 22 | 174 | 8.0 | 9.7 | 0.00 | 0.00 | 0.00 | 50 | 1002.3 |
| 20260509024557 | 22 | 182 | 3.2 | 9.7 | 0.00 | 0.00 | 0.00 | 50 | 1002.6 |
| 20260509024058 | 22 | 192 | 8.0 | 11.3 | 0.00 | 0.00 | 0.00 | 51 | 1002.4 |
| 20260509023814 | 22 | 167 | 6.4 | 11.3 | 0.00 | 0.00 | 0.00 | 49 | 1002.6 |
| 20260509023045 | 22 | 214 | 8.0 | 11.3 | 0.00 | 0.00 | 0.00 | 47 | 1002.7 |
| 20260509022524 | 22 | 170 | 6.4 | 11.3 | 0.00 | 0.00 | 0.00 | 51 | 1002.7 |
| 20260509022024 | 23 | 200 | 9.7 | 9.7 | 0.00 | 0.00 | 0.00 | 47 | 1002.8 |
| 20260509021755 | 21 | 167 | 4.8 | 9.7 | 0.00 | 0.00 | 0.00 | 50 | 1002.7 |
| 20260509021240 | 21 | 162 | 6.4 | 9.7 | 0.00 | 0.00 | 0.00 | 52 | 1003.0 |
| 20260509020527 | 22 | 158 | 8.0 | 12.9 | 0.00 | 0.00 | 0.00 | 52 | 1003.0 |
| 20260509020010 | 22 | 179 | 6.4 | 12.9 | 0.00 | 0.00 | 0.00 | 48 | 1003.1 |
| 20260509015506 | 22 | 176 | 6.4 | 11.3 | 0.00 | 0.00 | 0.00 | 50 | 1003.2 |
| 20260509015002 | 22 | 164 | 8.0 | 11.3 | 0.00 | 0.00 | 0.00 | 49 | 1003.1 |
| 20260509014447 | 22 | 161 | 6.4 | 9.7 | 0.00 | 0.00 | 0.00 | 52 | 1003.2 |
| 20260509013933 | 22 | 180 | 6.4 | 9.7 | 0.00 | 0.00 | 0.00 | 52 | 1003.2 |
| 20260509013430 | 21 | 189 | 6.4 | 9.7 | 0.00 | 0.00 | 0.00 | 49 | 1003.5 |
| 20260509012925 | 21 | 151 | 9.7 | 9.7 | 0.00 | 0.00 | 0.00 | 52 | 1003.4 |
| 20260509012420 | 22 | 180 | 4.8 | 9.7 | 0.00 | 0.00 | 0.00 | 51 | 1003.5 |
| 20260509011917 | 22 | 193 | 8.0 | 9.7 | 0.00 | 0.00 | 0.00 | 51 | 1003.4 |
| 20260509011413 | 21 | 165 | 8.0 | 9.7 | 0.00 | 0.00 | 0.00 | 53 | 1003.7 |
| 20260509010909 | 21 | 165 | 8.0 | 9.7 | 0.00 | 0.00 | 0.00 | 54 | 1003.5 |
| 20260509010405 | 21 | 168 | 6.4 | 9.7 | 0.00 | 0.00 | 0.00 | 53 | 1003.7 |
| 20260509005901 | 20 | 215 | 8.0 | 11.3 | 0.00 | 0.00 | 0.00 | 55 | 1003.6 |
| 20260509005346 | 21 | 173 | 6.4 | 11.3 | 0.00 | 0.00 | 0.00 | 52 | 1003.9 |
| 20260509005107 | 21 | 171 | 8.0 | 9.7 | 0.00 | 0.00 | 0.00 | 54 | 1003.7 |
| 20260509004338 | 21 | 175 | 4.8 | 9.7 | 0.00 | 0.00 | 0.00 | 55 | 1003.8 |
| 20260509003821 | 20 | 167 | 8.0 | 9.7 | 0.00 | 0.00 | 0.00 | 54 | 1003.9 |
| 20260509003322 | 20 | 166 | 6.4 | 9.7 | 0.00 | 0.00 | 0.00 | 53 | 1004.0 |
| 20260509003041 | 21 | 166 | 8.0 | 11.3 | 0.00 | 0.00 | 0.00 | 52 | 1003.8 |
| 20260509002321 | 20 | 182 | 8.0 | 11.3 | 0.00 | 0.00 | 0.00 | 53 | 1003.9 |
| 20260509001817 | 20 | 180 | 8.0 | 11.3 | 0.00 | 0.00 | 0.00 | 52 | 1003.9 |
| 20260509001313 | 20 | 161 | 6.4 | 11.3 | 0.00 | 0.00 | 0.00 | 51 | 1004.0 |
| 20260509000810 | 20 | 170 | 6.4 | 9.7 | 0.00 | 0.00 | 0.00 | 52 | 1003.9 |
| 20260509000307 | 19 | 175 | 4.8 | 9.7 | 0.00 | 0.00 | 0.00 | 54 | 1003.8 |
| 20260508235750 | 20 | 157 | 6.4 | 9.7 | 0.00 | 0.00 | 0.00 | 53 | 1003.8 |
| 20260508235247 | 19 | 164 | 9.7 | 9.7 | 0.00 | 0.00 | 0.00 | 52 | 1004.0 |
| 20260508234721 | 18 | 164 | 8.0 | 9.7 | 0.00 | 0.00 | 0.00 | 54 | 1003.8 |
| 20260508234218 | 19 | 162 | 8.0 | 9.7 | 0.00 | 0.00 | 0.00 | 52 | 1003.8 |
| 20260508233714 | 19 | 173 | 6.4 | 9.7 | 0.00 | 0.00 | 0.00 | 54 | 1003.8 |
| 20260508233209 | 19 | 156 | 6.4 | 9.7 | 0.00 | 0.00 | 0.00 | 53 | 1004.0 |
| 20260508232926 | 18 | 168 | 6.4 | 9.7 | 0.00 | 0.00 | 0.00 | 56 | 1004.0 |
| 20260508232640 | 19 | 165 | 6.4 | 9.7 | 0.00 | 0.00 | 0.00 | 57 | 1003.7 |
| 20260508231904 | 19 | 180 | 4.8 | 9.7 | 0.00 | 0.00 | 0.00 | 64 | 1003.9 |
| 20260508231143 | 18 | 173 | 6.4 | 9.7 | 0.00 | 0.00 | 0.00 | 66 | 1003.7 |
| 20260508230904 | 18 | 191 | 6.4 | 9.7 | 0.00 | 0.00 | 0.00 | 64 | 1003.6 |
| 20260508230135 | 17 | 176 | 6.4 | 11.3 | 0.00 | 0.00 | 0.00 | 68 | 1003.7 |
| 20260508225630 | 16 | 180 | 6.4 | 11.3 | 0.00 | 0.00 | 0.00 | 73 | 1003.7 |
| 20260508225127 | 15 | 194 | 6.4 | 11.3 | 0.00 | 0.00 | 0.00 | 74 | 1003.6 |
| 20260508224621 | 16 | 191 | 8.0 | 11.3 | 0.00 | 0.00 | 0.00 | 72 | 1003.6 |
| 20260508224341 | 15 | 196 | 8.0 | 11.3 | 0.00 | 0.00 | 0.00 | 74 | 1003.5 |
| 20260508223615 | 15 | 201 | 8.0 | 11.3 | 0.00 | 0.00 | 0.00 | 76 | 1003.6 |
| 20260508223110 | 14 | 197 | 8.0 | 12.9 | 0.00 | 0.00 | 0.00 | 78 | 1003.5 |
| 20260508222607 | 13 | 200 | 9.7 | 12.9 | 0.00 | 0.00 | 0.00 | 79 | 1003.4 |
| 20260508222102 | 13 | 180 | 6.4 | 12.9 | 0.00 | 0.00 | 0.00 | 78 | 1003.5 |
| 20260508221548 | 13 | 200 | 9.7 | 12.9 | 0.00 | 0.00 | 0.00 | 78 | 1003.2 |
| 20260508221304 | 13 | 193 | 8.0 | 12.9 | 0.00 | 0.00 | 0.00 | 78 | 1003.2 |
| 20260508220802 | 12 | 190 | 9.7 | 12.9 | 0.00 | 0.00 | 0.00 | 82 | 1003.3 |
| 20260508220035 | 12 | 197 | 9.7 | 12.9 | 0.00 | 0.00 | 0.00 | 82 | 1003.2 |
| 20260508215532 | 12 | 200 | 9.7 | 11.3 | 0.00 | 0.00 | 0.00 | 82 | 1003.2 |
| 20260508215026 | 12 | 192 | 9.7 | 12.9 | 0.00 | 0.00 | 0.00 | 83 | 1003.0 |
| 20260508215017 | 11 | 186 | 8.0 | 12.9 | 0.00 | 0.00 | 0.00 | 83 | 1002.9 |
| 20260508214016 | 11 | 199 | 9.7 | 11.3 | 0.00 | 0.00 | 0.00 | 83 | 1003.0 |
| 20260508213516 | 11 | 191 | 9.7 | 11.3 | 0.00 | 0.00 | 0.00 | 85 | 1002.9 |
| 20260508213011 | 11 | 190 | 9.7 | 9.7 | 0.00 | 0.00 | 0.00 | 89 | 1003.0 |
| 20260508212458 | 10 | 182 | 9.7 | 9.7 | 0.00 | 0.00 | 0.00 | 94 | 1002.8 |
| 20260508211946 | 10 | 180 | 8.0 | 11.3 | 0.00 | 0.00 | 0.00 | 96 | 1002.7 |
| 20260508211447 | 9 | 190 | 9.7 | 11.3 | 0.00 | 0.00 | 0.00 | 97 | 1002.7 |
| 20260508211155 | 9 | 194 | 9.7 | 9.7 | 0.00 | 0.00 | 0.00 | 97 | 1002.8 |
| 20260508210430 | 9 | 174 | 8.0 | 9.7 | 0.00 | 0.00 | 0.00 | 98 | 1002.5 |
| 20260508205914 | 8 | 176 | 8.0 | 9.7 | 0.00 | 0.00 | 0.00 | 98 | 1002.6 |
| 20260508205412 | 8 | 176 | 8.0 | 9.7 | 0.00 | 0.00 | 0.00 | 98 | 1002.5 |
| 20260508204906 | 8 | 175 | 8.0 | 9.7 | 0.00 | 0.00 | 0.00 | 98 | 1002.6 |
| 20260508204559 | 7 | 190 | 9.7 | 9.7 | 0.00 | 0.00 | 0.00 | 98 | 1002.4 |
| 20260508203838 | 7 | 177 | 9.7 | 9.7 | 0.00 | 0.00 | 0.00 | 98 | 1002.4 |
| 20260508203546 | 7 | 186 | 8.0 | 9.7 | 0.00 | 0.00 | 0.00 | 98 | 1002.3 |
| 20260508203251 | 7 | 179 | 8.0 | 9.7 | 0.00 | 0.00 | 0.00 | 98 | 1002.1 |
| 20260508202307 | 7 | 182 | 8.0 | 9.7 | 0.00 | 0.00 | 0.00 | 98 | 1002.1 |
| 20260508201751 | 7 | 189 | 9.7 | 9.7 | 0.00 | 0.00 | 0.00 | 98 | 1002.3 |
| 20260508201247 | 7 | 190 | 9.7 | 9.7 | 0.00 | 0.00 | 0.00 | 98 | 1002.0 |
| 20260508200742 | 7 | 177 | 8.0 | 9.7 | 0.00 | 0.00 | 0.00 | 98 | 1002.0 |
| 20260508200238 | 7 | 191 | 8.0 | 9.7 | 0.00 | 0.00 | 0.00 | 98 | 1001.9 |
| 20260508200158 | 7 | 169 | 8.0 | 9.7 | 0.00 | 0.00 | 0.00 | 98 | 1001.8 |
| 20260508195438 | 7 | 180 | 8.0 | 9.7 | 0.00 | 0.00 | 0.00 | 98 | 1001.8 |
| 20260508194923 | 7 | 175 | 9.7 | 9.7 | 0.00 | 0.00 | 0.00 | 98 | 1001.8 |
| 20260508194152 | 8 | 174 | 9.7 | 9.7 | 0.00 | 0.00 | 0.00 | 98 | 1001.7 |
| 20260508193647 | 7 | 178 | 9.7 | 9.7 | 0.00 | 0.00 | 0.00 | 98 | 1001.5 |
| 20260508193143 | 7 | 176 | 8.0 | 9.7 | 0.00 | 0.00 | 0.00 | 98 | 1001.5 |
| 20260508192850 | 7 | 179 | 8.0 | 9.7 | 0.00 | 0.00 | 0.00 | 97 | 1001.6 |
| 20260508192125 | 7 | 174 | 9.7 | 9.7 | 0.00 | 0.00 | 0.00 | 98 | 1001.4 |
| 20260508191611 | 7 | 177 | 9.7 | 9.7 | 0.00 | 0.00 | 0.00 | 97 | 1001.3 |
| 20260508191047 | 7 | 179 | 9.7 | 11.3 | 0.00 | 0.00 | 0.00 | 97 | 1001.1 |
| 20260508190554 | 7 | 182 | 8.0 | 11.3 | 0.00 | 0.00 | 0.00 | 97 | 1001.3 |
| 20260508190029 | 7 | 187 | 9.7 | 9.7 | 0.00 | 0.00 | 0.00 | 97 | 1000.9 |
| 20260508185523 | 7 | 180 | 6.4 | 9.7 | 0.00 | 0.00 | 0.00 | 97 | 1001.1 |
| 20260508185019 | 7 | 182 | 8.0 | 9.7 | 0.00 | 0.00 | 0.00 | 97 | 1001.0 |
| 20260508184455 | 7 | 174 | 8.0 | 9.7 | 0.00 | 0.00 | 0.00 | 97 | 1001.1 |
| 20260508183952 | 7 | 174 | 9.7 | 9.7 | 0.00 | 0.00 | 0.00 | 97 | 1000.9 |
| 20260508183446 | 7 | 172 | 8.0 | 9.7 | 0.00 | 0.00 | 0.00 | 97 | 1001.0 |
| 20260508182942 | 7 | 172 | 8.0 | 11.3 | 0.00 | 0.00 | 0.00 | 97 | 1001.0 |
| 20260508182438 | 7 | 174 | 9.7 | 11.3 | 0.00 | 0.00 | 0.00 | 97 | 1001.1 |
| 20260508181934 | 7 | 172 | 9.7 | 11.3 | 0.00 | 0.00 | 0.00 | 97 | 1001.1 |
| 20260508181430 | 7 | 175 | 8.0 | 11.3 | 0.00 | 0.00 | 0.00 | 97 | 1001.1 |
| 20260508181139 | 7 | 179 | 9.7 | 11.3 | 0.00 | 0.00 | 0.00 | 97 | 1001.1 |
| 20260508180638 | 7 | 179 | 9.7 | 11.3 | 0.00 | 0.00 | 0.00 | 97 | 1000.9 |
| 20260508175907 | 7 | 180 | 8.0 | 11.3 | 0.00 | 0.00 | 0.00 | 97 | 1001.0 |
| 20260508175403 | 7 | 184 | 9.7 | 11.3 | 0.00 | 0.00 | 0.00 | 97 | 1001.0 |
| 20260508175108 | 7 | 177 | 9.7 | 11.3 | 0.00 | 0.00 | 0.00 | 97 | 1001.0 |
| 20260508174345 | 7 | 183 | 9.7 | 11.3 | 0.00 | 0.00 | 0.00 | 97 | 1000.8 |
| 20260508174105 | 7 | 189 | 9.7 | 9.7 | 0.00 | 0.00 | 0.00 | 97 | 1000.8 |
| 20260508173339 | 7 | 180 | 8.0 | 9.7 | 0.00 | 0.00 | 0.00 | 97 | 1000.7 |
| 20260508172832 | 7 | 190 | 9.7 | 9.7 | 0.00 | 0.00 | 0.00 | 97 | 1000.7 |
| 20260508172329 | 7 | 181 | 9.7 | 11.3 | 0.00 | 0.00 | 0.00 | 96 | 1000.8 |
| 20260508171813 | 7 | 188 | 9.7 | 11.3 | 0.00 | 0.00 | 0.00 | 96 | 1000.7 |
| 20260508171309 | 7 | 177 | 8.0 | 11.3 | 0.00 | 0.00 | 0.00 | 96 | 1000.6 |
| 20260508171037 | 7 | 184 | 9.7 | 11.3 | 0.00 | 0.00 | 0.00 | 96 | 1000.8 |
| 20260508170251 | 7 | 180 | 9.7 | 9.7 | 0.00 | 0.00 | 0.00 | 96 | 1000.7 |
| 20260508165747 | 7 | 174 | 9.7 | 11.3 | 0.00 | 0.00 | 0.00 | 96 | 1000.6 |
| 20260508165241 | 7 | 169 | 9.7 | 11.3 | 0.00 | 0.00 | 0.00 | 97 | 1000.7 |
| 20260508164738 | 7 | 174 | 9.7 | 9.7 | 0.00 | 0.00 | 0.00 | 96 | 1000.8 |
| 20260508164224 | 7 | 179 | 8.0 | 11.3 | 0.00 | 0.00 | 0.00 | 96 | 1000.8 |
| 20260508163710 | 7 | 178 | 9.7 | 11.3 | 0.00 | 0.00 | 0.00 | 96 | 1000.7 |
| 20260508163207 | 7 | 175 | 9.7 | 11.3 | 0.00 | 0.00 | 0.00 | 96 | 1000.7 |
| 20260508162652 | 7 | 174 | 8.0 | 11.3 | 0.00 | 0.00 | 0.00 | 96 | 1000.7 |
| 20260508162412 | 7 | 172 | 9.7 | 9.7 | 0.00 | 0.00 | 0.00 | 96 | 1000.8 |
| 20260508161637 | 7 | 176 | 9.7 | 9.7 | 0.00 | 0.00 | 0.00 | 96 | 1000.7 |
| 20260508161137 | 7 | 178 | 9.7 | 9.7 | 0.00 | 0.00 | 0.00 | 96 | 1000.6 |
| 20260508160635 | 7 | 178 | 9.7 | 11.3 | 0.00 | 0.00 | 0.00 | 96 | 1000.5 |
| 20260508160113 | 7 | 178 | 8.0 | 11.3 | 0.00 | 0.00 | 0.00 | 96 | 1000.6 |
| 20260508155829 | 7 | 169 | 9.7 | 9.7 | 0.00 | 0.00 | 0.00 | 96 | 1000.5 |
| 20260508155106 | 7 | 176 | 8.0 | 9.7 | 0.00 | 0.00 | 0.00 | 96 | 1000.5 |
| 20260508154606 | 7 | 176 | 8.0 | 11.3 | 0.00 | 0.00 | 0.00 | 96 | 1000.7 |
| 20260508154104 | 7 | 172 | 9.7 | 9.7 | 0.00 | 0.00 | 0.00 | 96 | 1000.5 |
| 20260508153600 | 7 | 180 | 9.7 | 9.7 | 0.00 | 0.00 | 0.00 | 96 | 1000.7 |
| 20260508153046 | 7 | 176 | 8.0 | 9.7 | 0.00 | 0.00 | 0.00 | 96 | 1000.5 |
| 20260508152542 | 7 | 177 | 9.7 | 9.7 | 0.00 | 0.00 | 0.00 | 96 | 1000.5 |
| 20260508152038 | 7 | 177 | 9.7 | 9.7 | 0.00 | 0.00 | 0.00 | 96 | 1000.5 |
| 20260508151546 | 7 | 182 | 9.7 | 9.7 | 0.00 | 0.00 | 0.00 | 96 | 1000.7 |
| 20260508151029 | 7 | 178 | 6.4 | 9.7 | 0.00 | 0.00 | 0.00 | 96 | 1000.6 |
| 20260508150526 | 7 | 175 | 8.0 | 9.7 | 0.00 | 0.00 | 0.00 | 96 | 1000.6 |
| 20260508150012 | 7 | 175 | 8.0 | 9.7 | 0.00 | 0.00 | 0.00 | 96 | 1000.7 |
| 20260508145507 | 7 | 171 | 6.4 | 9.7 | 0.00 | 0.00 | 0.00 | 95 | 1000.7 |
| 20260508144952 | 7 | 169 | 8.0 | 9.7 | 0.00 | 0.00 | 0.00 | 95 | 1000.7 |
| 20260508144448 | 8 | 172 | 8.0 | 9.7 | 0.00 | 0.00 | 0.00 | 95 | 1000.6 |
| 20260508143944 | 7 | 175 | 8.0 | 11.3 | 0.00 | 0.00 | 0.00 | 95 | 1000.6 |
| 20260508143932 | 8 | 176 | 9.7 | 11.3 | 0.00 | 0.00 | 0.00 | 95 | 1000.6 |
| 20260508142935 | 8 | 175 | 8.0 | 11.3 | 0.00 | 0.00 | 0.00 | 95 | 1000.7 |
| 20260508142656 | 8 | 172 | 9.7 | 11.3 | 0.00 | 0.00 | 0.00 | 95 | 1000.5 |
| 20260508141917 | 7 | 172 | 8.0 | 9.7 | 0.00 | 0.00 | 0.00 | 95 | 1000.5 |
| 20260508141412 | 7 | 171 | 8.0 | 9.7 | 0.00 | 0.00 | 0.00 | 95 | 1000.4 |
| 20260508140859 | 7 | 174 | 8.0 | 9.7 | 0.00 | 0.00 | 0.00 | 95 | 1000.3 |
| 20260508140355 | 7 | 176 | 8.0 | 9.7 | 0.00 | 0.00 | 0.00 | 95 | 1000.3 |
| 20260508135841 | 8 | 174 | 8.0 | 11.3 | 0.00 | 0.00 | 0.00 | 95 | 1000.3 |
| 20260508135326 | 8 | 168 | 9.7 | 11.3 | 0.00 | 0.00 | 0.00 | 95 | 1000.3 |
| 20260508134812 | 8 | 170 | 9.7 | 9.7 | 0.00 | 0.00 | 0.00 | 95 | 1000.3 |
| 20260508134308 | 8 | 184 | 8.0 | 9.7 | 0.00 | 0.00 | 0.00 | 94 | 1000.3 |
| 20260508133802 | 8 | 175 | 8.0 | 9.7 | 0.00 | 0.00 | 0.00 | 94 | 1000.3 |
| 20260508133303 | 8 | 177 | 9.7 | 9.7 | 0.00 | 0.00 | 0.00 | 94 | 1000.3 |
| 20260508132803 | 8 | 194 | 9.7 | 9.7 | 0.00 | 0.00 | 0.00 | 94 | 1000.4 |
| 20260508132306 | 8 | 192 | 9.7 | 9.7 | 0.00 | 0.00 | 0.00 | 94 | 1000.4 |
| 20260508131757 | 8 | 176 | 8.0 | 9.7 | 0.00 | 0.00 | 0.00 | 93 | 1000.5 |
| 20260508131254 | 8 | 179 | 9.7 | 9.7 | 0.00 | 0.00 | 0.00 | 93 | 1000.5 |
| 20260508131007 | 8 | 186 | 9.7 | 11.3 | 0.00 | 0.00 | 0.00 | 93 | 1000.3 |
| 20260508130245 | 8 | 181 | 8.0 | 11.3 | 0.00 | 0.00 | 0.00 | 92 | 1000.2 |
| 20260508125740 | 8 | 181 | 9.7 | 11.3 | 0.00 | 0.00 | 0.00 | 92 | 1000.3 |
| 20260508125500 | 8 | 188 | 8.0 | 9.7 | 0.00 | 0.00 | 0.00 | 92 | 1000.4 |
| 20260508124732 | 8 | 175 | 8.0 | 9.7 | 0.00 | 0.00 | 0.00 | 91 | 1000.4 |
| 20260508124218 | 8 | 172 | 8.0 | 9.7 | 0.00 | 0.00 | 0.00 | 91 | 1000.5 |
| 20260508123714 | 8 | 172 | 6.4 | 9.7 | 0.00 | 0.00 | 0.00 | 91 | 1000.4 |
| 20260508123210 | 8 | 180 | 8.0 | 9.7 | 0.00 | 0.00 | 0.00 | 91 | 1000.4 |
| 20260508122701 | 9 | 176 | 6.4 | 9.7 | 0.00 | 0.00 | 0.00 | 90 | 1000.4 |
| 20260508122151 | 9 | 175 | 6.4 | 9.7 | 0.00 | 0.00 | 0.00 | 91 | 1000.5 |
| 20260508121631 | 9 | 171 | 8.0 | 9.7 | 0.00 | 0.00 | 0.00 | 90 | 1000.3 |
| 20260508121131 | 9 | 188 | 8.0 | 9.7 | 0.00 | 0.00 | 0.00 | 89 | 1000.3 |
| 20260508120631 | 9 | 174 | 8.0 | 9.7 | 0.00 | 0.00 | 0.00 | 88 | 1000.4 |
| 20260508120126 | 9 | 181 | 8.0 | 9.7 | 0.00 | 0.00 | 0.00 | 87 | 1000.3 |
| 20260508115601 | 9 | 172 | 9.7 | 9.7 | 0.00 | 0.00 | 0.00 | 88 | 1000.1 |
| 20260508115313 | 9 | 169 | 9.7 | 9.7 | 0.00 | 0.00 | 0.00 | 90 | 1000.1 |
| 20260508114551 | 10 | 170 | 9.7 | 9.7 | 0.00 | 0.00 | 0.00 | 90 | 999.9 |
| 20260508114036 | 9 | 177 | 8.0 | 9.7 | 0.00 | 0.00 | 0.00 | 92 | 999.9 |
| 20260508114019 | 9 | 177 | 8.0 | 9.7 | 0.00 | 0.00 | 0.00 | 93 | 999.8 |
| 20260508113030 | 9 | 171 | 8.0 | 9.7 | 0.00 | 0.00 | 0.00 | 94 | 999.7 |
| 20260508112529 | 9 | 166 | 9.7 | 9.7 | 0.00 | 0.00 | 0.00 | 94 | 999.6 |
| 20260508112030 | 9 | 175 | 6.4 | 11.3 | 0.00 | 0.00 | 0.00 | 93 | 999.7 |
| 20260508111750 | 9 | 197 | 9.7 | 11.3 | 0.00 | 0.00 | 0.00 | 93 | 999.7 |
| 20260508111023 | 9 | 180 | 8.0 | 9.7 | 0.00 | 0.00 | 0.00 | 93 | 999.7 |
| 20260508110518 | 9 | 174 | 6.4 | 9.7 | 0.00 | 0.00 | 0.00 | 93 | 999.4 |
| 20260508110014 | 9 | 182 | 9.7 | 9.7 | 0.00 | 0.00 | 0.00 | 93 | 999.5 |
| 20260508105511 | 10 | 175 | 8.0 | 11.3 | 0.00 | 0.00 | 0.00 | 93 | 999.5 |
| 20260508105007 | 10 | 178 | 8.0 | 11.3 | 0.00 | 0.00 | 0.00 | 92 | 999.4 |
| 20260508104452 | 10 | 181 | 8.0 | 11.3 | 0.00 | 0.00 | 0.00 | 92 | 999.6 |
| 20260508104428 | 10 | 188 | 8.0 | 11.3 | 0.00 | 0.00 | 0.00 | 91 | 999.5 |
| 20260508103710 | 10 | 194 | 9.7 | 11.3 | 0.00 | 0.00 | 0.00 | 90 | 999.4 |
| 20260508102940 | 10 | 182 | 9.7 | 11.3 | 0.00 | 0.00 | 0.00 | 89 | 999.4 |
| 20260508102425 | 10 | 195 | 8.0 | 9.7 | 0.00 | 0.00 | 0.00 | 89 | 999.3 |
| 20260508101921 | 10 | 182 | 8.0 | 9.7 | 0.00 | 0.00 | 0.00 | 89 | 999.2 |
| 20260508101418 | 10 | 175 | 8.0 | 9.7 | 0.00 | 0.00 | 0.00 | 89 | 999.2 |
| 20260508100914 | 10 | 175 | 6.4 | 9.7 | 0.00 | 0.00 | 0.00 | 89 | 999.1 |
| 20260508100359 | 10 | 171 | 6.4 | 9.7 | 0.00 | 0.00 | 0.00 | 89 | 999.0 |
| 20260508095857 | 10 | 174 | 8.0 | 9.7 | 0.00 | 0.00 | 0.00 | 88 | 999.0 |
| 20260508095358 | 10 | 172 | 8.0 | 9.7 | 0.00 | 0.00 | 0.00 | 88 | 998.9 |
| 20260508094856 | 11 | 174 | 8.0 | 9.7 | 0.00 | 0.00 | 0.00 | 87 | 998.9 |
| 20260508094352 | 11 | 179 | 6.4 | 9.7 | 0.00 | 0.00 | 0.00 | 86 | 999.0 |
| 20260508093829 | 11 | 172 | 8.0 | 9.7 | 0.00 | 0.00 | 0.00 | 85 | 998.9 |
| 20260508093315 | 11 | 180 | 8.0 | 9.7 | 0.00 | 0.00 | 0.00 | 84 | 998.9 |
| 20260508092810 | 11 | 181 | 8.0 | 9.7 | 0.00 | 0.00 | 0.00 | 83 | 998.6 |
| 20260508092312 | 11 | 187 | 8.0 | 9.7 | 0.00 | 0.00 | 0.00 | 82 | 998.6 |
| 20260508091757 | 11 | 179 | 8.0 | 9.7 | 0.00 | 0.00 | 0.00 | 81 | 998.6 |
| 20260508091257 | 12 | 178 | 8.0 | 9.7 | 0.00 | 0.00 | 0.00 | 80 | 998.4 |
| 20260508090744 | 12 | 196 | 9.7 | 9.7 | 0.00 | 0.00 | 0.00 | 77 | 998.4 |
| 20260508090446 | 12 | 178 | 6.4 | 9.7 | 0.00 | 0.00 | 0.00 | 76 | 998.1 |
| 20260508085715 | 12 | 170 | 8.0 | 9.7 | 0.00 | 0.00 | 0.00 | 77 | 998.2 |
| 20260508085155 | 13 | 172 | 8.0 | 9.7 | 0.00 | 0.00 | 0.00 | 77 | 998.1 |
| 20260508084707 | 13 | 176 | 8.0 | 9.7 | 0.00 | 0.00 | 0.00 | 75 | 998.2 |
| 20260508084142 | 13 | 179 | 6.4 | 9.7 | 0.00 | 0.00 | 0.00 | 73 | 998.2 |
| 20260508083619 | 13 | 178 | 6.4 | 9.7 | 0.00 | 0.00 | 0.00 | 72 | 998.1 |
| 20260508083338 | 13 | 176 | 6.4 | 9.7 | 0.00 | 0.00 | 0.00 | 73 | 997.9 |
| 20260508082831 | 13 | 178 | 8.0 | 9.7 | 0.00 | 0.00 | 0.00 | 73 | 997.8 |
| 20260508082045 | 13 | 172 | 6.4 | 9.7 | 0.00 | 0.00 | 0.00 | 72 | 997.7 |
| 20260508081540 | 13 | 183 | 6.4 | 9.7 | 0.00 | 0.00 | 0.00 | 72 | 997.7 |
| 20260508081036 | 13 | 180 | 6.4 | 9.7 | 0.00 | 0.00 | 0.00 | 72 | 997.6 |
| 20260508080532 | 13 | 182 | 8.0 | 9.7 | 0.00 | 0.00 | 0.00 | 72 | 997.6 |
| 20260508080024 | 13 | 180 | 8.0 | 9.7 | 0.00 | 0.00 | 0.00 | 70 | 997.5 |
| 20260508075738 | 14 | 179 | 8.0 | 9.7 | 0.00 | 0.00 | 0.00 | 68 | 997.3 |
| 20260508075010 | 14 | 186 | 8.0 | 9.7 | 0.00 | 0.00 | 0.00 | 67 | 997.4 |
| 20260508074728 | 14 | 180 | 6.4 | 11.3 | 0.00 | 0.00 | 0.00 | 66 | 997.4 |
| 20260508073953 | 15 | 179 | 8.0 | 11.3 | 0.00 | 0.00 | 0.00 | 65 | 997.4 |
| 20260508073449 | 15 | 189 | 8.0 | 11.3 | 0.00 | 0.00 | 0.00 | 65 | 997.3 |
| 20260508072946 | 15 | 179 | 6.4 | 11.3 | 0.00 | 0.00 | 0.00 | 63 | 997.4 |
| 20260508072418 | 15 | 188 | 8.0 | 9.7 | 0.00 | 0.00 | 0.00 | 62 | 997.0 |
| 20260508071915 | 16 | 168 | 8.0 | 11.3 | 0.00 | 0.00 | 0.00 | 59 | 997.1 |
| 20260508071411 | 16 | 169 | 8.0 | 12.9 | 0.00 | 0.00 | 0.00 | 57 | 997.0 |
| 20260508070908 | 16 | 189 | 6.4 | 12.9 | 0.00 | 0.00 | 0.00 | 55 | 997.1 |
| 20260508070403 | 16 | 163 | 6.4 | 9.7 | 0.00 | 0.00 | 0.00 | 52 | 996.8 |
| 20260508065853 | 17 | 167 | 6.4 | 9.7 | 0.00 | 0.00 | 0.00 | 48 | 996.8 |
| 20260508065405 | 17 | 171 | 6.4 | 9.7 | 0.00 | 0.00 | 0.00 | 47 | 996.8 |
| 20260508065111 | 17 | 178 | 6.4 | 9.7 | 0.00 | 0.00 | 0.00 | 47 | 996.7 |
| 20260508064353 | 17 | 177 | 8.0 | 9.7 | 0.00 | 0.00 | 0.00 | 46 | 996.6 |
| 20260508063841 | 17 | 175 | 8.0 | 9.7 | 0.00 | 0.00 | 0.00 | 45 | 996.4 |
| 20260508063321 | 17 | 176 | 6.4 | 8.0 | 0.00 | 0.00 | 0.00 | 46 | 996.4 |
| 20260508062821 | 17 | 180 | 6.4 | 9.7 | 0.00 | 0.00 | 0.00 | 45 | 996.3 |
| 20260508062321 | 18 | 178 | 6.4 | 9.7 | 0.00 | 0.00 | 0.00 | 43 | 996.4 |
| 20260508061815 | 18 | 176 | 6.4 | 9.7 | 0.00 | 0.00 | 0.00 | 43 | 996.5 |
| 20260508061311 | 18 | 175 | 8.0 | 9.7 | 0.00 | 0.00 | 0.00 | 42 | 996.3 |
| 20260508060806 | 18 | 180 | 8.0 | 9.7 | 0.00 | 0.00 | 0.00 | 42 | 996.3 |
| 20260508060303 | 18 | 171 | 8.0 | 9.7 | 0.00 | 0.00 | 0.00 | 44 | 996.1 |
| 20260508055802 | 18 | 174 | 6.4 | 9.7 | 0.00 | 0.00 | 0.00 | 44 | 996.3 |
| 20260508055255 | 18 | 185 | 8.0 | 9.7 | 0.00 | 0.00 | 0.00 | 40 | 996.2 |
| 20260508054750 | 18 | 190 | 8.0 | 9.7 | 0.00 | 0.00 | 0.00 | 40 | 996.3 |
| 20260508054246 | 19 | 169 | 8.0 | 11.3 | 0.00 | 0.00 | 0.00 | 38 | 996.4 |
| 20260508053742 | 19 | 191 | 8.0 | 11.3 | 0.00 | 0.00 | 0.00 | 40 | 996.4 |
| 20260508053229 | 19 | 196 | 9.7 | 9.7 | 0.00 | 0.00 | 0.00 | 38 | 996.2 |
| 20260508052716 | 19 | 178 | 8.0 | 12.9 | 0.00 | 0.00 | 0.00 | 38 | 996.2 |
| 20260508052210 | 19 | 195 | 8.0 | 14.5 | 0.00 | 0.00 | 0.00 | 38 | 996.1 |
| 20260508051655 | 19 | 177 | 8.0 | 14.5 | 0.00 | 0.00 | 0.00 | 38 | 996.3 |
| 20260508051410 | 19 | 182 | 9.7 | 12.9 | 0.00 | 0.00 | 0.00 | 39 | 996.2 |
| 20260508050647 | 20 | 176 | 6.4 | 11.3 | 0.00 | 0.00 | 0.00 | 40 | 996.5 |
| 20260508050143 | 20 | 180 | 6.4 | 9.7 | 0.00 | 0.00 | 0.00 | 38 | 996.6 |
| 20260508045638 | 20 | 267 | 3.2 | 6.4 | 0.00 | 0.00 | 0.00 | 40 | 996.5 |
| 20260508045357 | 20 | 128 | 0.0 | 6.4 | 0.00 | 0.00 | 0.00 | 38 | 996.5 |
| 20260508044622 | 20 | 219 | 1.6 | 6.4 | 0.00 | 0.00 | 0.00 | 35 | 996.6 |
| 20260508044116 | 20 | 98 | 1.6 | 4.8 | 0.00 | 0.00 | 0.00 | 38 | 996.5 |
| 20260508043840 | 20 | 81 | 1.6 | 6.4 | 0.00 | 0.00 | 0.00 | 34 | 996.5 |
| 20260508043107 | 21 | 269 | 3.2 | 6.4 | 0.00 | 0.00 | 0.00 | 34 | 996.6 |
| 20260508042605 | 21 | 253 | 1.6 | 6.4 | 0.00 | 0.00 | 0.00 | 29 | 996.8 |
| 20260508042048 | 21 | 207 | 0.0 | 6.4 | 0.00 | 0.00 | 0.00 | 30 | 996.8 |
| 20260508041549 | 21 | 101 | 0.0 | 4.8 | 0.00 | 0.00 | 0.00 | 34 | 996.7 |
| 20260508041049 | 21 | 195 | 1.6 | 4.8 | 0.00 | 0.00 | 0.00 | 34 | 996.6 |
| 20260508040810 | 21 | 95 | 3.2 | 4.8 | 0.00 | 0.00 | 0.00 | 34 | 996.8 |
| 20260508040033 | 21 | 56 | 0.0 | 6.4 | 0.00 | 0.00 | 0.00 | 40 | 997.1 |
| 20260508035529 | 21 | 37 | 1.6 | 6.4 | 0.00 | 0.00 | 0.00 | 35 | 996.9 |
| 20260508035025 | 21 | 286 | 3.2 | 4.8 | 0.00 | 0.00 | 0.00 | 36 | 997.1 |
| 20260508034520 | 21 | 310 | 1.6 | 4.8 | 0.00 | 0.00 | 0.00 | 33 | 997.0 |
| 20260508034016 | 21 | 264 | 3.2 | 6.4 | 0.00 | 0.00 | 0.00 | 31 | 997.1 |
| 20260508033940 | 21 | 129 | 0.0 | 6.4 | 0.00 | 0.00 | 0.00 | 35 | 997.2 |
| 20260508032958 | 20 | 17 | 3.2 | 6.4 | 0.00 | 0.00 | 0.00 | 36 | 997.3 |